INTELSAT 902 (IS-902)

Last updated on Sat Apr 13 2024 01:02:36 GMT+0100 (British Summer Time)

1 26900U 01039A 24103.43918333 -.00000290 00000+0 00000+0 0 9994 2 26900 4.0936 81.3806 0003422 336.0206 251.7456 1.00271521 82715
UTC large
Height (km)
Speed (km/s)
/
Latitude / Longitude
Inclination (degrees)
Orbital Period (minutes)
Azimuth
Elevation
Range (km)
Doppler Factor

Next 0 passes for location: London (51.5072 / 0.1276)

Sorry there are no passes over London.